Weather in Mamykovo

Russia / Samara Oblast     54°22′38″N   50°44′02″E
temp.,
°C
wind,
m/s
gust,
m/s
humid.,
%
clouds,
%
prec.,
mm/h
press.,
hPa
HPBL,
m
24 july, sat
sat2401:00+14w227217 0.0 100511
04:00+13wsw337178 0.0 100634
07:00+17wsw376032 0.0 1006249
10:00+21w56545 0.0 10061187
13:00+22w565348 1.5 10071706
16:00+23wnw563992 1.5 10072299
19:00+19nnw586099 0.0 1010579
22:00+14n338044 0.0 101246
25 july, sun
sun2501:00+12nnw34795 0.0 101458
04:00+11nnw34750 0.0 101647
07:00+14n36540 0.0 1018220
10:00+19n46330 0.0 10191555
13:00+21nnw45290 0.0 10202235
16:00+22nnw44294 0.0 10202456
19:00+20nnw47404 0.0 1021445
22:00+14n22547 0.0 102211
26 july, mon
mon2601:00+15wsw124922 0.0 102315
04:00+11w22635 0.0 102310
07:00+15w235297 0.0 1024121
10:00+21wnw353717 0.0 1024978
13:00+23wnw453098 0.0 10232541
16:00+23nw453262 0.0 10222111
19:00+21nnw364381 0.0 1022182
22:00+15wnw235890 0.0 102219
27 july, tue
tue2701:00+15w335955 0.0 102132
04:00+15wsw3557100 0.0 1021115
07:00+17wsw47586 0.0 1020246
10:00+22wnw4746100 0.0 10191082
13:00+24wnw793812 0.0 10181833
16:00+25nw71139100 0.0 10162791
19:00+23nnw6945100 0.0 10161437
22:00+15nw33750 0.0 101832
28 july, wed
wed2801:00+14nw36783 0.0 1018128
04:00+11nnw22880 0.0 101825
07:00+15nne23705 0.0 1019182
10:00+20nnw35450 0.0 10181230
13:00+24nw46360 0.0 10162112
16:00+25nw67325 0.0 10152271
19:00+23nnw24440 0.0 1014248
22:00+17sw11591 0.0 101411